Belden, MS

3:07 AM CST on February 10, 2016 (GMT -0600)
Tupelo Regional

Weather History for KTUP - July, 2014

Change the Weather History Date:

Monday, July 14, 2014

  Actual Average Record
Temperature  
Mean Temperature 83 °F 82 °F  
Max Temperature 94 °F 92 °F 105 °F (1980)
Min Temperature 72 °F 71 °F 57 °F (1967)
Degree Days  
Heating Degree Days 0 0  
Month to date heating degree days 0 0  
Since 1 June heating degree days 0 0  
Since 1 July heating degree days 0 0  
Cooling Degree Days 18 17  
Month to date cooling degree days 198 227  
Year to date cooling degree days 892 899  
Since 1 June cooling degree days 618 622  
Growing Degree Days 32 (Base 50)    
Moisture  
Dew Point 71 °F    
Average Humidity 72    
Maximum Humidity 94    
Minimum Humidity 49    
Precipitation  
Precipitation 0.55 in 0.13 in 1.92 in (1936)
Month to date precipitation 1.37 1.88  
Year to date precipitation 29.88 31.00  
Snow  
Snow 0.00 in 0.00 in - ()
Month to date snowfall 0.0 0.0  
Since 1 June snowfall 0.0 0.0  
Since 1 July snowfall 0.0 0.0  
Snow Depth 0.00 in    
Sea Level Pressure  
Sea Level Pressure 29.97 in    
Wind  
Wind Speed 6 mph (WNW)    
Max Wind Speed 29 mph    
Max Gust Speed 38 mph    
Visibility 8 miles    
Events Rain , Thunderstorm    
T = Trace of Precipitation, MM = Missing Value Source: NWS Daily Summary

Daily Weather History Graph

Daily Weather History Graph

Search for Another Location

Airport or City:

Trip Planner

Search our weather history database for the weather conditions in past years. The results will help you decide how hot, cold, wet, or windy it might be!

Date:

Astronomy

Jul. 14, 2014 Rise Set
Actual Time 5:53 AM CDT 8:07 PM CDT
Civil Twilight 5:24 AM CDT 8:36 PM CDT
Nautical Twilight 4:49 AM CDT 9:11 PM CDT
Astronomical Twilight 4:11 AM CDT 9:49 PM CDT
Moon 9:48 PM CDT (7/14) 8:27 AM CDT (7/14)
Length of Visible Light 15h 11m
Length of Day
14h 14m
Waning Gibbous, 93% of the Moon is Illuminated
Jul 14
Waning Gibbous
Jul 18
Last Quarter
Jul 26
New
Aug 3
First Quarter
Aug 10
Full

Hourly Weather History & Observations

Time (CDT) Temp. Heat Index Dew Point Humidity Pressure Visibility Wind Dir Wind Speed Gust Speed Precip Events Conditions
12:53 AM 77.0 °F - 73.0 °F 88% 29.99 in 9.0 mi Calm Calm - N/A   Clear
1:53 AM 75.9 °F - 72.0 °F 87% 29.98 in 8.0 mi Calm Calm - N/A   Clear
2:53 AM 75.9 °F - 72.0 °F 87% 29.98 in 8.0 mi Calm Calm - N/A   Clear
3:53 AM 75.0 °F - 73.0 °F 94% 29.98 in 6.0 mi SW 4.6 mph - N/A   Clear
4:53 AM 75.0 °F - 72.0 °F 90% 29.98 in 6.0 mi SW 3.5 mph - N/A   Clear
5:53 AM 75.0 °F - 72.0 °F 90% 29.99 in 5.0 mi Calm Calm - N/A   Clear
6:53 AM 75.9 °F - 72.0 °F 87% 30.00 in 5.0 mi West 3.5 mph - N/A   Clear
7:53 AM 80.1 °F 84.2 °F 73.0 °F 79% 30.01 in 8.0 mi West 8.1 mph - N/A   Clear
8:53 AM 84.0 °F 91.2 °F 73.9 °F 72% 30.02 in 10.0 mi WSW 5.8 mph - N/A   Clear
9:53 AM 86.0 °F 93.0 °F 73.0 °F 65% 30.01 in 10.0 mi West 11.5 mph - N/A   Clear
10:53 AM 89.1 °F 98.0 °F 73.9 °F 61% 29.99 in 10.0 mi Variable 6.9 mph - N/A   Clear
11:53 AM 90.0 °F 97.9 °F 73.0 °F 57% 29.99 in 10.0 mi West 10.4 mph - N/A   Scattered Clouds
12:53 PM 91.0 °F 97.6 °F 71.1 °F 52% 29.97 in 10.0 mi West 11.5 mph - N/A   Partly Cloudy
1:53 PM 91.9 °F 99.5 °F 72.0 °F 52% 29.94 in 10.0 mi West 11.5 mph - N/A   Scattered Clouds
2:53 PM 93.0 °F 100.1 °F 71.1 °F 49% 29.92 in 10.0 mi West 11.5 mph - N/A   Partly Cloudy
3:53 PM 91.9 °F 99.5 °F 72.0 °F 52% 29.89 in 10.0 mi WSW 12.7 mph 18.4 mph N/A   Partly Cloudy
4:53 PM 91.9 °F 100.7 °F 73.0 °F 54% 29.88 in 10.0 mi WSW 8.1 mph - N/A   Scattered Clouds
5:00 PM - - - N/A% - - North - - N/A   Unknown
5:53 PM 91.9 °F 100.7 °F 73.0 °F 54% 29.88 in 10.0 mi West 6.9 mph - N/A   Clear
6:53 PM 90.0 °F 97.9 °F 73.0 °F 57% 29.88 in 10.0 mi West 8.1 mph - N/A   Clear
7:53 PM 87.1 °F 94.5 °F 73.0 °F 63% 29.90 in 10.0 mi Calm Calm - N/A   Clear
8:36 PM 79.0 °F - 64.0 °F 60% 29.98 in 10.0 mi North 17.3 mph 36.8 mph N/A Thunderstorm Overcast
8:43 PM 78.1 °F - 64.9 °F 64% 29.98 in 10.0 mi North 18.4 mph 29.9 mph N/A Thunderstorm Overcast
8:50 PM 75.2 °F - 66.2 °F 73% 29.99 in 5.0 mi North 19.6 mph 32.2 mph 0.00 in Rain , Thunderstorm Light Thunderstorms and Rain
8:53 PM 73.0 °F - 66.9 °F 81% 29.98 in 2.5 mi North 16.1 mph 32.2 mph 0.10 in Rain , Thunderstorm Heavy Thunderstorms and Rain
9:07 PM 72.0 °F - 69.1 °F 91% 30.00 in 3.0 mi Variable 4.6 mph - 0.20 in Rain , Thunderstorm Heavy Rain
9:22 PM 72.0 °F - 69.1 °F 91% 30.01 in 10.0 mi North 6.9 mph - 0.22 in Rain Light Rain
9:53 PM 72.0 °F - 69.1 °F 91% 30.01 in 10.0 mi Calm Calm - 0.22 in   Overcast
10:53 PM 72.0 °F - 69.1 °F 91% 29.98 in 9.0 mi NNW 9.2 mph - 0.13 in Rain Light Rain
11:53 PM 73.0 °F - 69.1 °F 87% 29.95 in 10.0 mi Calm Calm - 0.10 in   Partly Cloudy